Paris, TX

4:47 AM CDT on July 23, 2017 (GMT -0500)
Cox

Weather History for KPRX - August, 2012

Change the Weather History Date:

Wednesday, August 29, 2012

  Actual Average Record
Temperature  
Mean Temperature 82 °F -  
Max Temperature 96 °F 89 °F 100 °F (2013)
Min Temperature 69 °F 68 °F 68 °F (2004)
Cooling Degree Days 18    
Growing Degree Days 32 (Base 50)    
Moisture  
Dew Point 60 °F    
Average Humidity 46    
Maximum Humidity 60    
Minimum Humidity 32    
Precipitation  
Precipitation 0.00 in - - ()
Sea Level Pressure  
Sea Level Pressure 29.86 in    
Wind  
Wind Speed 10 mph (NNE)    
Max Wind Speed 20 mph    
Max Gust Speed 26 mph    
Visibility 10 miles    
Events      
Averages and records for this station are not official NWS values.
T = Trace of Precipitation, MM = Missing Value Source: NWS Daily Summary

Daily Weather History Graph

Daily Weather History Graph

Search for Another Location

Airport or City:

Trip Planner

Search our weather history database for the weather conditions in past years. The results will help you decide how hot, cold, wet, or windy it might be!

Date:

Astronomy

Aug. 29, 2012 Rise Set
Actual Time 6:54 AM CDT 7:50 PM CDT
Civil Twilight 6:28 AM CDT 8:15 PM CDT
Nautical Twilight 5:58 AM CDT 8:46 PM CDT
Astronomical Twilight 5:27 AM CDT 9:17 PM CDT
Moon 6:30 PM CDT (8/29) 4:54 AM CDT (8/29)
Length of Visible Light 13h 47m
Length of Day
12h 56m
Waxing Gibbous, 96% of the Moon is Illuminated
Aug 29
Waxing Gibbous
Aug 31
Full
Sep 8
Last Quarter
Sep 15
New
Sep 22
First Quarter

Hourly Weather History & Observations

Time (CDT) Temp. Heat Index Dew Point Humidity Pressure Visibility Wind Dir Wind Speed Gust Speed Precip Events Conditions
12:15 AM 75.2 °F - 53.6 °F 47% 29.92 in 10.0 mi NNE 8.1 mph - N/A   Clear
12:35 AM 73.4 °F - 53.6 °F 50% 29.92 in 10.0 mi NE 8.1 mph - N/A   Clear
12:55 AM 73.4 °F - 53.6 °F 50% 29.92 in 10.0 mi NE 8.1 mph - N/A   Clear
1:15 AM 73.4 °F - 53.6 °F 50% 29.92 in 10.0 mi NE 8.1 mph - N/A   Clear
1:35 AM 73.4 °F - 53.6 °F 50% 29.92 in 10.0 mi NNE 8.1 mph - N/A   Clear
1:55 AM 73.4 °F - 53.6 °F 50% 29.91 in 10.0 mi NNE 8.1 mph - N/A   Clear
2:15 AM 73.4 °F - 53.6 °F 50% 29.90 in 10.0 mi NNE 9.2 mph - N/A   Clear
2:35 AM 73.4 °F - 53.6 °F 50% 29.90 in 10.0 mi NNE 8.1 mph - N/A   Clear
2:55 AM 73.4 °F - 53.6 °F 50% 29.90 in 10.0 mi NNE 9.2 mph - N/A   Clear
3:15 AM 71.6 °F - 55.4 °F 57% 29.90 in 10.0 mi North 9.2 mph - N/A   Clear
3:35 AM 71.6 °F - 55.4 °F 57% 29.90 in 10.0 mi North 10.4 mph - N/A   Clear
3:55 AM 71.6 °F - 55.4 °F 57% 29.90 in 10.0 mi North 9.2 mph - N/A   Clear
4:15 AM 71.6 °F - 55.4 °F 57% 29.90 in 10.0 mi North 9.2 mph - N/A   Clear
4:35 AM 71.6 °F - 55.4 °F 57% 29.90 in 10.0 mi North 9.2 mph - N/A   Clear
4:55 AM 71.6 °F - 53.6 °F 53% 29.90 in 10.0 mi North 10.4 mph - N/A   Clear
5:15 AM 71.6 °F - 53.6 °F 53% 29.90 in 10.0 mi North 9.2 mph - N/A   Clear
5:35 AM 71.6 °F - 53.6 °F 53% 29.90 in 10.0 mi North 10.4 mph - N/A   Clear
5:55 AM 71.6 °F - 53.6 °F 53% 29.91 in 10.0 mi North 10.4 mph - N/A   Clear
6:15 AM 69.8 °F - 55.4 °F 60% 29.91 in 10.0 mi North 9.2 mph - N/A   Clear
6:35 AM 69.8 °F - 55.4 °F 60% 29.91 in 10.0 mi North 9.2 mph - N/A   Clear
6:55 AM 69.8 °F - 55.4 °F 60% 29.91 in 10.0 mi North 10.4 mph - N/A   Clear
7:15 AM 69.8 °F - 55.4 °F 60% 29.91 in 10.0 mi North 9.2 mph - N/A   Clear
7:35 AM 71.6 °F - 55.4 °F 57% 29.91 in 10.0 mi North 11.5 mph - N/A   Partly Cloudy
7:55 AM 71.6 °F - 55.4 °F 57% 29.91 in 10.0 mi North 10.4 mph - N/A   Scattered Clouds
8:15 AM 73.4 °F - 55.4 °F 53% 29.91 in 10.0 mi NNE 11.5 mph - N/A   Partly Cloudy
8:35 AM 75.2 °F - 55.4 °F 50% 29.91 in 10.0 mi North 12.7 mph - N/A   Clear
8:55 AM 78.8 °F - 55.4 °F 44% 29.92 in 10.0 mi NNE 11.5 mph - N/A   Clear
9:15 AM 80.6 °F 80.8 °F 57.2 °F 45% 29.92 in 10.0 mi NE 10.4 mph - N/A   Clear
9:35 AM 80.6 °F 80.8 °F 57.2 °F 45% 29.92 in 10.0 mi NNE 13.8 mph - N/A   Clear
9:55 AM 82.4 °F 82.9 °F 60.8 °F 48% 29.92 in 10.0 mi NNE 10.4 mph - N/A   Clear
10:15 AM 84.2 °F 85.0 °F 62.6 °F 48% 29.91 in 10.0 mi NNE 10.4 mph - N/A   Clear
10:35 AM 84.2 °F 85.0 °F 62.6 °F 48% 29.92 in 10.0 mi NE 12.7 mph 16.1 mph N/A   Clear
11:15 AM 87.8 °F 90.4 °F 66.2 °F 49% 29.91 in 10.0 mi NE 12.7 mph - N/A   Clear
11:35 AM 89.6 °F 92.2 °F 66.2 °F 46% 29.91 in 10.0 mi NE 15.0 mph 18.4 mph N/A   Clear
11:55 AM 89.6 °F 92.2 °F 66.2 °F 46% 29.91 in 10.0 mi NE 10.4 mph 20.7 mph N/A   Clear
12:15 PM 89.6 °F 92.2 °F 66.2 °F 46% 29.90 in 10.0 mi ENE 12.7 mph 24.2 mph N/A   Clear
12:35 PM 91.4 °F 93.2 °F 64.4 °F 41% 29.89 in 10.0 mi NE 15.0 mph 20.7 mph N/A   Clear
12:55 PM 91.4 °F 93.2 °F 64.4 °F 41% 29.88 in 10.0 mi NE 13.8 mph 21.9 mph N/A   Clear
1:15 PM 91.4 °F 93.2 °F 64.4 °F 41% 29.86 in 10.0 mi NNE 13.8 mph 17.3 mph N/A   Clear
1:35 PM 93.2 °F 94.9 °F 64.4 °F 38% 29.86 in 10.0 mi ENE 11.5 mph 21.9 mph N/A   Partly Cloudy
1:55 PM 93.2 °F 94.9 °F 64.4 °F 38% 29.85 in 10.0 mi NNE 16.1 mph 24.2 mph N/A   Partly Cloudy
2:15 PM 93.2 °F 94.9 °F 64.4 °F 38% 29.84 in 10.0 mi NE 13.8 mph - N/A   Partly Cloudy
2:35 PM 93.2 °F 94.1 °F 62.6 °F 36% 29.83 in 10.0 mi NE 19.6 mph 25.3 mph N/A   Scattered Clouds
2:55 PM 93.2 °F 94.9 °F 64.4 °F 38% 29.82 in 10.0 mi ENE 13.8 mph 24.2 mph N/A   Mostly Cloudy
3:15 PM 95.0 °F 96.0 °F 62.6 °F 34% 29.81 in 10.0 mi NE 16.1 mph 20.7 mph N/A   Mostly Cloudy
3:35 PM 96.8 °F 99.0 °F 64.4 °F 34% 29.80 in 10.0 mi NE 15.0 mph 19.6 mph N/A   Scattered Clouds
3:55 PM 95.0 °F 96.0 °F 62.6 °F 34% 29.80 in 10.0 mi ENE 16.1 mph 21.9 mph N/A   Scattered Clouds
4:15 PM 95.0 °F 96.0 °F 62.6 °F 34% 29.79 in 10.0 mi NE 13.8 mph 24.2 mph N/A   Partly Cloudy
4:35 PM 95.0 °F 96.0 °F 62.6 °F 34% 29.79 in 10.0 mi NNE 13.8 mph 20.7 mph N/A   Partly Cloudy
4:55 PM 96.8 °F 98.0 °F 62.6 °F 32% 29.78 in 10.0 mi NNE 15.0 mph 21.9 mph N/A   Scattered Clouds
5:15 PM 96.8 °F 98.0 °F 62.6 °F 32% 29.78 in 10.0 mi NE 15.0 mph 19.6 mph N/A   Scattered Clouds
5:35 PM 95.0 °F 96.0 °F 62.6 °F 34% 29.78 in 10.0 mi NE 12.7 mph 26.5 mph N/A   Scattered Clouds
5:55 PM 93.2 °F 94.1 °F 62.6 °F 36% 29.78 in 10.0 mi NNE 16.1 mph 21.9 mph N/A   Mostly Cloudy
6:15 PM 93.2 °F 94.1 °F 62.6 °F 36% 29.77 in 10.0 mi NNE 12.7 mph 17.3 mph N/A   Partly Cloudy
6:35 PM 93.2 °F 94.1 °F 62.6 °F 36% 29.77 in 10.0 mi NE 12.7 mph - N/A   Partly Cloudy
6:55 PM 93.2 °F 94.1 °F 62.6 °F 36% 29.77 in 10.0 mi NE 12.7 mph 20.7 mph N/A   Partly Cloudy
7:15 PM 91.4 °F 92.1 °F 62.6 °F 38% 29.77 in 10.0 mi NE 12.7 mph - N/A   Clear
7:35 PM 91.4 °F 92.1 °F 62.6 °F 38% 29.77 in 10.0 mi NE 11.5 mph - N/A   Partly Cloudy
7:55 PM 89.6 °F 90.1 °F 62.6 °F 40% 29.78 in 10.0 mi NE 8.1 mph - N/A   Partly Cloudy
8:15 PM 87.8 °F 88.5 °F 62.6 °F 43% 29.78 in 10.0 mi NNE 6.9 mph - N/A   Clear
8:55 PM 87.8 °F 88.5 °F 62.6 °F 43% 29.79 in 10.0 mi NE 6.9 mph - N/A   Mostly Cloudy
9:15 PM 84.2 °F 85.6 °F 64.4 °F 51% 29.79 in 10.0 mi NNE 8.1 mph - N/A   Scattered Clouds
9:35 PM 84.2 °F 85.6 °F 64.4 °F 51% 29.80 in 10.0 mi NNE 5.8 mph - N/A   Scattered Clouds
9:55 PM 82.4 °F 83.9 °F 64.4 °F 54% 29.80 in 10.0 mi NNE 6.9 mph - N/A   Partly Cloudy
10:35 PM 84.2 °F 85.6 °F 64.4 °F 51% 29.81 in 10.0 mi NNE 9.2 mph - N/A   Partly Cloudy
10:55 PM 82.4 °F 83.9 °F 64.4 °F 54% 29.81 in 10.0 mi NNE 6.9 mph - N/A   Clear
11:35 PM 82.4 °F 83.9 °F 64.4 °F 54% 29.82 in 10.0 mi NE 9.2 mph - N/A   Overcast
11:55 PM 82.4 °F 83.9 °F 64.4 °F 54% 29.82 in 10.0 mi NNE 6.9 mph - N/A   Overcast